Location: Albuquerque Trailhead
(34.7934°N, 106.3736°W)
Time: 22:51:13
(UTC+00:00)

Cosmos 1603 - Pass Details

Date: 20 June 2021
Orbit: 832 x 858 km, 71.0° (Epoch: 01 August)

Event Time Altitude Azimuth Distance (km) Brightness Sun altitude
Exits shadow 08:28:58 42° 296° (WNW) 1,200 4.4 -28.6°
Drops below altitude 10° 08:34:19 10° 6° (N) 2,465 7.0 -28.2°
Sets 08:36:54 0° 14° (NNE) 3,399 8.1 -28.0°
